Content
SEND FEEDBACK

Daily
Averages
Monthly
Summary
Mexico

SAN MARTINIANO, QUINTANA ROO


Home > North America > Mexico > Quintana Roo
Elevation: 49 feet     Latitude: 20 47N     Longitude: 087 16W

WEATHER
 
SELECT A DAY
Number of Records: 196,972;   Date Range: 2/21/06 - 9/21/14
 
SHARE

PRINT THIS DATA

[ ← Previous Day ]
WEATHER ALMANAC - JULY 20, 2014
[ Next Day → ]
[ °C ]   °F
Weather ElementAverageHighLow
Temperature83.6 °F95 °F (2:15 pm)77 °F (4:15 am)
Dewpoint48 °F82.4 °F (8:55 am) (7:00 pm)
Humidity68.9 %100 % (8:55 am)46 % (1:15 pm)
Barometer30.07 in30.11 in (11:15 am)30.04 in (4:15 am)
Wind Speed2.7 mph11.5 mph (7:15 am)
Wind Gust43.7 mph (7:15 am)
Weather ElementAverage
Visibility9.7 mi
Wind DirectionE (93.9 °)

Weather ElementTotal
Precipitation---
Cooling Degree Days21 (Base 65)
Growing Degree Days36 (Base 50)
Averaged from 70 records on July 20, 2014
WEATHER CONDITIONS BREAKOUT
WIND DIRECTION BREAKOUT
WEATHER BY HOUR - JULY 20, 2014
[ °C ]   °F
Local TimeTemperatureDewpointHumidityBarometerVisibilityWind DirectionWind SpeedGust SpeedPrecipitationEventsConditions
12:35 AM78.8 °F0.0 °F30.09 in10.0 miCalmClear
12:55 AM78.8 °F0.0 °F30.09 in10.0 miCalmClear
1:15 AM78.8 °F0.0 °F30.08 in10.0 miCalmClear
1:35 AM78.8 °F0.0 °F30.07 in10.0 miCalmClear
1:55 AM78.8 °F0.0 °F30.07 in10.0 miCalmClear
2:15 AM78.8 °F0.0 °F30.06 in10.0 miCalmClear
2:35 AM78.8 °F0.0 °F30.06 in10.0 miCalmClear
2:55 AM78.8 °F0.0 °F30.05 in10.0 miCalmClear
3:15 AM78.8 °F0.0 °F30.05 in10.0 miCalmClear
3:35 AM78.8 °F0.0 °F30.05 in10.0 miCalmClear
3:55 AM78.8 °F0.0 °F30.05 in10.0 miCalmClear
4:15 AM77.0 °F0.0 °F30.04 in10.0 miCalmClear
4:35 AM77.0 °F0.0 °F30.05 in10.0 miCalmScattered Clouds
4:55 AM77.0 °F0.0 °F30.05 in10.0 miCalmScattered Clouds
5:15 AM77.0 °F0.0 °F30.05 in7.0 miCalmClear
5:35 AM77.0 °F0.0 °F30.06 in5.0 miCalmHaze
5:55 AM77.0 °F0.0 °F30.06 in7.0 miCalmClear
6:15 AM77.0 °F0.0 °F30.07 in7.0 miCalmClear
6:35 AM77.0 °F0.0 °F30.07 in10.0 miCalmClear
6:55 AM77.0 °F0.0 °F30.08 in10.0 miCalmClear
7:15 AM77.0 °F0.0 °F30.07 in5.0 miENE (70°)11.5 mph43.7 mphHaze
7:35 AM77.0 °F0.0 °F30.07 in5.0 miESE (120°)3.5 mphHaze
7:55 AM78.8 °F0.0 °F30.08 in10.0 miCalmClear
8:15 AM80.6 °F0.0 °F30.08 in10.0 miSE (140°)3.5 mphClear
8:35 AM80.6 °F0.0 °F30.09 in10.0 miCalmClear
8:55 AM82.4 °F82.4 °F100 %30.09 in10.0 miSSE (160°)5.8 mphClear
9:15 AM84.2 °F78.8 °F84 %30.10 in10.0 miSSE (160°)8.1 mphClear
9:35 AM86.0 °F77.0 °F74 %30.10 in10.0 miSouth (190°)8.1 mphClear
9:55 AM87.8 °F77.0 °F70 %30.10 in10.0 miSouth (190°)6.9 mphClear
10:35 AM89.6 °F75.2 °F62 %30.10 in10.0 miSouth (180°)6.9 mphClear
10:55 AM89.6 °F73.4 °F59 %30.10 in10.0 miSouth (180°)6.9 mphClear
11:15 AM89.6 °F73.4 °F59 %30.11 in10.0 miSW (220°)6.9 mphClear
11:35 AM91.4 °F73.4 °F55 %30.11 in10.0 miSW (230°)8.1 mphClear
11:55 AM91.4 °F73.4 °F55 %30.11 in10.0 miWSW (250°)4.6 mphScattered Clouds
12:15 PM91.4 °F71.6 °F52 %30.10 in10.0 miSW (230°)5.8 mphMostly Cloudy
12:35 PM91.4 °F71.6 °F52 %30.11 in10.0 miSW (220°)6.9 mphScattered Clouds
12:55 PM93.2 °F71.6 °F49 %30.10 in10.0 miWSW (240°)8.1 mphScattered Clouds
1:15 PM93.2 °F69.8 °F46 %30.10 in10.0 miWSW (240°)5.8 mphClear
1:35 PM93.2 °F69.8 °F46 %30.09 in10.0 miWest (270°)8.1 mphMostly Cloudy
1:55 PM93.2 °F69.8 °F46 %30.08 in10.0 miWest (280°)5.8 mphScattered Clouds
2:15 PM95.0 °F71.6 °F47 %30.07 in10.0 miWest (270°)6.9 mphClear
2:35 PM93.2 °F71.6 °F49 %30.07 in10.0 miWNW (290°)9.2 mphScattered Clouds
2:55 PM91.4 °F73.4 °F55 %30.06 in10.0 miWNW (290°)8.1 mph20.7 mphScattered Clouds
3:15 PM89.6 °F71.6 °F55 %30.06 in10.0 miWest (270°)8.1 mphClear
3:35 PM87.8 °F73.4 °F62 %30.07 in10.0 miNNW (340°)5.8 mphClear
3:55 PM84.2 °F69.8 °F62 %30.06 in10.0 miNNW (340°)6.9 mphClear
4:15 PM82.4 °F69.8 °F66 %30.06 in10.0 miNNW (330°)4.6 mphClear
4:35 PM82.4 °F71.6 °F70 %30.06 in10.0 miCalmClear
4:55 PM84.2 °F71.6 °F66 %30.05 in10.0 miCalmClear
5:15 PM84.2 °F73.4 °F70 %30.05 in10.0 miCalmClear
5:35 PM84.2 °F73.4 °F70 %30.05 in10.0 miCalmClear
5:55 PM86.0 °F73.4 °F66 %30.05 in10.0 miCalmClear
6:15 PM86.0 °F73.4 °F66 %30.04 in10.0 miCalmClear
6:35 PM89.6 °F73.4 °F59 %30.04 in10.0 miCalmClear
6:55 PM87.8 °F73.4 °F62 %30.04 in10.0 miESE (120°)3.5 mphClear
7:15 PM86.0 °F77.0 °F74 %30.05 in10.0 miENE (60°)4.6 mphClear
7:35 PM86.0 °F75.2 °F70 %30.05 in10.0 miNorth (360°)3.5 mphScattered Clouds
7:55 PM86.0 °F75.2 °F70 %30.05 in10.0 miCalmClear
8:15 PM86.0 °F75.2 °F70 %30.06 in10.0 miNNW (330°)3.5 mphClear
8:35 PM84.2 °F75.2 °F74 %30.07 in10.0 miCalmClear
8:55 PM84.2 °F77.0 °F79 %30.08 in10.0 miCalmClear
9:15 PM82.4 °F77.0 °F84 %30.09 in10.0 miCalmClear
9:35 PM84.2 °F77.0 °F79 %30.09 in10.0 miCalmClear
9:55 PM82.4 °F77.0 °F84 %30.09 in10.0 miCalmClear
10:15 PM80.6 °F80.6 °F100 %30.09 in10.0 miCalmClear
10:35 PM80.6 °F80.6 °F100 %30.08 in10.0 miCalmClear
10:55 PM80.6 °F80.6 °F100 %30.09 in10.0 miCalmClear
11:15 PM82.4 °F78.8 °F89 %30.09 in10.0 miCalmClear
11:35 PM80.6 °F78.8 °F94 %30.09 in10.0 miCalmClear
11:55 PM78.8 °F78.8 °F100 %30.09 in10.0 miCalmClear
Hourly data recorded from KPCM, located miles away from San Martiniano, Quintana Roo







STORIES FROM OUR PARTNERS